Regional Weather Roundup
Issued by NWS

Home | Current Version | Previous Version | Graphics & Text | Print | Product List | Glossary On
Versions: 1 2 3 4 5 6 7 8 9 10 11 12 13 14 15 16 17 18 19 20 21 22 23 24 25 26 27 28 29 30 31 32 33 34 35 36 37 38 39 40 41 42 43 44 45 46 47 48 49 50
000
ASUS45 KCYS 201910
RWRWY

WYOMING REGIONAL WEATHER ROUNDUP
NATIONAL WEATHER SERVICE CHEYENNE WY
1200 PM MST THU NOV 20 2014

NOTE:  "FAIR" INDICATES FEW OR NO CLOUDS BELOW 12,000 FEET
WITH NO SIGNIFICANT WEATHER AND/OR OBSTRUCTIONS TO VISIBILITY.

WYZ001-202000-
YELLOWSTONE NATIONAL PARK

CITY           SKY/WX    TMP DP  RH WIND       PRES   REMARKS
LK YELLOWSTONE   N/A     31  14  49 VRB3      30.06F
W YELLOWSTONE  NOT AVBL

$$
WYZ002>013-054>058-071-098>099-202000-
NORTHERN WYOMING

CITY           SKY/WX    TMP DP  RH WIND       PRES   REMARKS
JACKSON        NOT AVBL
CODY           PTSUNNY   27  19  74 CALM      29.91F
GREYBULL       PTSUNNY   16  10  77 CALM      29.98F
WORLAND        MOSUNNY   21  15  78 SW3       29.96F
SHERIDAN       MOSUNNY   38  20  48 CALM      29.88F
BUFFALO        MOSUNNY   41  22  46 E3        29.89F
GILLETTE       SUNNY     40  24  53 SW8       29.89F WCI  34
HULETT         FAIR      39  23  52 SW7       29.91F WCI  34
NEWCASTLE        N/A    N/A N/A N/A MISG        N/A

$$
WYZ014>020-022>026-101>103-202000-
CENTRAL WYOMING

CITY           SKY/WX    TMP DP  RH WIND       PRES   REMARKS
BIG PINEY      CLOUDY    32  17  54 CALM      30.07F
PINEDALE       CLOUDY    30  18  59 CALM      30.06F
DUBOIS         FAIR      36  19  51 W21       29.99F WCI  24
LANDER         CLOUDY    25  17  72 NW5       29.96F WCI  19
RIVERTON       PTSUNNY   24  16  71 CALM      29.98F
CASPER         SUNNY     42  19  39 SW22      29.94F
DOUGLAS        SUNNY     41  19  41 SE3       29.96F

$$
WYZ021-027>030-104>119-202000-
SOUTHERN WYOMING

CITY           SKY/WX    TMP DP  RH WIND       PRES   REMARKS
EVANSTON       CLOUDY    39  15  37 SW8       30.08F WCI  33
KEMMERER       CLOUDY    34  19  55 W6        30.08F WCI  29
FORT BRIDGER   MOCLDY    43  14  31 W14       30.10F
ROCK SPRINGS   CLOUDY    38  12  34 W10       30.06F WCI  31
DIXON          CLOUDY    44  10  25 SW9       30.10F
RAWLINS        MOSUNNY   41  12  30 SW12      30.04F
SARATOGA       CLOUDY    41  12  30 CALM      30.05F
LARAMIE        MOSUNNY   41  11  29 SW5       29.99F
CHEYENNE       SUNNY     48  12  23 SW14      29.97F
TORRINGTON     SUNNY     44  18  35 S3        29.95F
PINE BLUFFS    FAIR      52  10  19 W5        29.97F

$$


USA.gov is the U.S. government's official web portal to all federal, state and local government web resources and services.